| time (UTC) | temp F | wind direction | speed knots | gust knots | rain 1hr in | rain 24hr in | rain mn in | humidity % | barometer mb |
| 20260507040018 | 53 | 296 | 3.5 | 0.0 | 0.00 | 0.00 | 0.00 | 80 | 1020.2 |
| 20260507034542 | 53 | 340 | 3.5 | 0.0 | 0.00 | 0.00 | 0.00 | 79 | 1020.1 |
| 20260507033013 | 53 | 311 | 3.5 | 0.0 | 0.00 | 0.00 | 0.00 | 79 | 1020.0 |
| 20260507031538 | 53 | 333 | 1.7 | 0.0 | 0.00 | 0.00 | 0.00 | 80 | 1019.9 |
| 20260507030048 | 53 | 19 | 4.3 | 0.0 | 0.00 | 0.00 | 0.00 | 80 | 1019.8 |
| 20260507024522 | 54 | 5 | 4.3 | 0.0 | 0.00 | 0.00 | 0.00 | 79 | 1019.7 |
| 20260507023049 | 54 | 311 | 5.2 | 0.0 | 0.00 | 0.00 | 0.00 | 79 | 1019.6 |
| 20260507021513 | 54 | 299 | 5.2 | 0.0 | 0.00 | 0.00 | 0.00 | 78 | 1019.6 |
| 20260507020033 | 54 | 302 | 5.2 | 0.0 | 0.00 | 0.00 | 0.00 | 77 | 1019.6 |
| 20260507014554 | 55 | 332 | 5.2 | 0.0 | 0.00 | 0.00 | 0.00 | 78 | 1019.6 |
| 20260507013015 | 55 | 317 | 3.5 | 0.0 | 0.00 | 0.00 | 0.00 | 78 | 1019.6 |
| 20260507011526 | 55 | 344 | 5.2 | 0.0 | 0.00 | 0.00 | 0.00 | 78 | 1019.8 |
| 20260507010042 | 55 | 11 | 5.2 | 0.0 | 0.00 | 0.00 | 0.00 | 77 | 1019.9 |
| 20260507004608 | 55 | 332 | 4.3 | 0.0 | 0.00 | 0.00 | 0.00 | 78 | 1019.9 |
| 20260507003032 | 56 | 300 | 4.3 | 0.0 | 0.00 | 0.00 | 0.00 | 77 | 1019.9 |
| 20260507001605 | 56 | 343 | 6.1 | 0.0 | 0.00 | 0.00 | 0.00 | 77 | 1019.6 |
| 20260507000058 | 56 | 322 | 4.3 | 0.0 | 0.00 | 0.00 | 0.00 | 77 | 1019.6 |
| 20260506234609 | 57 | 360 | 3.5 | 0.0 | 0.00 | 0.00 | 0.00 | 78 | 1019.6 |
| 20260506233024 | 56 | 340 | 6.1 | 0.0 | 0.00 | 0.00 | 0.00 | 77 | 1019.6 |
| 20260506231540 | 57 | 322 | 5.2 | 0.0 | 0.00 | 0.00 | 0.00 | 76 | 1019.6 |
| 20260506230056 | 58 | 312 | 5.2 | 0.0 | 0.00 | 0.00 | 0.00 | 76 | 1019.6 |
| 20260506224514 | 58 | 313 | 5.2 | 0.0 | 0.00 | 0.00 | 0.00 | 75 | 1019.8 |
| 20260506223042 | 58 | 24 | 5.2 | 0.0 | 0.00 | 0.00 | 0.00 | 74 | 1019.8 |
| 20260506221507 | 58 | 311 | 4.3 | 0.0 | 0.00 | 0.00 | 0.00 | 74 | 1019.9 |
| 20260506220035 | 58 | 5 | 4.3 | 0.0 | 0.00 | 0.00 | 0.00 | 74 | 1019.7 |
| 20260506214535 | 59 | 360 | 4.3 | 0.0 | 0.00 | 0.00 | 0.00 | 74 | 1019.8 |
| 20260506213053 | 59 | 294 | 5.2 | 0.0 | 0.00 | 0.00 | 0.00 | 75 | 1019.7 |
| 20260506211513 | 59 | 44 | 5.2 | 0.0 | 0.00 | 0.00 | 0.00 | 73 | 1019.8 |
| 20260506210034 | 59 | 344 | 5.2 | 0.0 | 0.00 | 0.00 | 0.00 | 74 | 1019.6 |
| 20260506204556 | 59 | 315 | 4.3 | 0.0 | 0.00 | 0.00 | 0.00 | 72 | 1019.6 |
| 20260506203031 | 60 | 319 | 5.2 | 0.0 | 0.00 | 0.00 | 0.00 | 73 | 1019.7 |
| 20260506201513 | 58 | 304 | 5.2 | 0.0 | 0.00 | 0.00 | 0.00 | 73 | 1019.8 |
| 20260506200051 | 58 | 348 | 4.3 | 0.0 | 0.00 | 0.00 | 0.00 | 74 | 1020.0 |
| 20260506194531 | 58 | 9 | 3.5 | 0.0 | 0.00 | 0.00 | 0.00 | 75 | 1019.9 |
| 20260506193048 | 57 | 17 | 2.6 | 0.0 | 0.00 | 0.00 | 0.00 | 76 | 1019.8 |
| 20260506191558 | 56 | 289 | 1.7 | 0.0 | 0.00 | 0.00 | 0.00 | 80 | 1019.8 |
| 20260506184501 | 56 | 311 | 2.6 | 0.0 | 0.00 | 0.00 | 0.00 | 81 | 1019.9 |
| 20260506183017 | 55 | 319 | 2.6 | 0.0 | 0.00 | 0.00 | 0.00 | 83 | 1020.0 |
| 20260506181613 | 55 | 271 | 2.6 | 0.0 | 0.00 | 0.00 | 0.00 | 83 | 1020.0 |
| 20260506180018 | 54 | 5 | 3.5 | 0.0 | 0.00 | 0.00 | 0.00 | 83 | 1019.9 |
| 20260506174534 | 55 | 331 | 1.7 | 0.0 | 0.00 | 0.00 | 0.00 | 82 | 1019.6 |
| 20260506173056 | 55 | 22 | 0.9 | 0.0 | 0.00 | 0.00 | 0.00 | 83 | 1019.5 |
| 20260506171603 | 54 | 44 | 0.9 | 0.0 | 0.00 | 0.00 | 0.00 | 83 | 1019.5 |
| 20260506170017 | 54 | 303 | 0.0 | 0.0 | 0.00 | 0.00 | 0.00 | 84 | 1019.3 |
| 20260506164536 | 54 | 344 | 0.9 | 0.0 | 0.00 | 0.00 | 0.00 | 83 | 1019.5 |
| 20260506163051 | 53 | 333 | 1.7 | 0.0 | 0.00 | 0.00 | 0.00 | 83 | 1019.5 |
| 20260506161606 | 53 | 30 | 0.9 | 0.0 | 0.00 | 0.00 | 0.00 | 83 | 1019.2 |
| 20260506160038 | 53 | 308 | 1.7 | 0.0 | 0.00 | 0.00 | 0.00 | 84 | 1019.3 |
| 20260506154605 | 53 | 19 | 2.6 | 0.0 | 0.00 | 0.00 | 0.00 | 84 | 1019.2 |
| 20260506153043 | 53 | 270 | 0.9 | 0.0 | 0.00 | 0.00 | 0.00 | 84 | 1019.0 |
| 20260506151517 | 53 | 300 | 0.9 | 0.0 | 0.00 | 0.00 | 0.00 | 85 | 1018.5 |
| 20260506150033 | 53 | 5 | 0.0 | 0.0 | 0.00 | 0.00 | 0.00 | 84 | 1018.5 |
| 20260506144553 | 52 | 5 | 1.7 | 0.0 | 0.00 | 0.00 | 0.00 | 86 | 1019.0 |
| 20260506143103 | 52 | 360 | 1.7 | 0.0 | 0.00 | 0.00 | 0.00 | 87 | 1019.0 |
| 20260506141540 | 51 | 360 | 1.7 | 0.0 | 0.00 | 0.00 | 0.00 | 87 | 1019.0 |
| 20260506134536 | 51 | 321 | 1.7 | 0.0 | 0.00 | 0.00 | 0.00 | 88 | 1018.4 |
| 20260506133053 | 51 | 5 | 0.9 | 0.0 | 0.00 | 0.00 | 0.00 | 88 | 1018.4 |
| 20260506131606 | 51 | 10 | 1.7 | 0.0 | 0.00 | 0.00 | 0.00 | 89 | 1018.3 |
| 20260506130039 | 51 | 340 | 0.9 | 0.0 | 0.00 | 0.00 | 0.00 | 89 | 1018.1 |
| 20260506124559 | 51 | 355 | 0.9 | 0.0 | 0.00 | 0.00 | 0.00 | 89 | 1017.9 |
| 20260506123012 | 51 | 306 | 1.7 | 0.0 | 0.00 | 0.00 | 0.00 | 89 | 1017.8 |
| 20260506121523 | 51 | 333 | 1.7 | 0.0 | 0.00 | 0.00 | 0.00 | 89 | 1017.7 |
| 20260506120106 | 51 | 348 | 1.7 | 0.0 | 0.00 | 0.00 | 0.00 | 89 | 1017.7 |
| 20260506114527 | 51 | 317 | 1.7 | 0.0 | 0.00 | 0.00 | 0.00 | 89 | 1017.6 |
| 20260506113037 | 52 | 346 | 2.6 | 0.0 | 0.00 | 0.00 | 0.00 | 89 | 1017.6 |
| 20260506111509 | 52 | 332 | 1.7 | 0.0 | 0.00 | 0.00 | 0.00 | 89 | 1017.4 |
| 20260506110045 | 52 | 9 | 2.6 | 0.0 | 0.00 | 0.00 | 0.00 | 89 | 1017.3 |
| 20260506104503 | 52 | 30 | 1.7 | 0.0 | 0.00 | 0.00 | 0.00 | 88 | 1017.1 |
| 20260506103032 | 52 | 355 | 2.6 | 0.0 | 0.00 | 0.00 | 0.00 | 88 | 1017.1 |
| 20260506101545 | 52 | 336 | 1.7 | 0.0 | 0.00 | 0.00 | 0.00 | 88 | 1017.0 |
| 20260506100034 | 53 | 355 | 2.6 | 0.0 | 0.00 | 0.00 | 0.00 | 88 | 1016.8 |
| 20260506094559 | 53 | 324 | 1.7 | 0.0 | 0.00 | 0.00 | 0.00 | 88 | 1016.7 |
| 20260506093006 | 53 | 322 | 2.6 | 0.0 | 0.00 | 0.00 | 0.00 | 88 | 1016.5 |
| 20260506091524 | 53 | 355 | 3.5 | 0.0 | 0.00 | 0.00 | 0.00 | 87 | 1016.4 |
| 20260506090044 | 53 | 23 | 2.6 | 0.0 | 0.00 | 0.00 | 0.00 | 87 | 1016.5 |
| 20260506084559 | 53 | 345 | 2.6 | 0.0 | 0.00 | 0.00 | 0.00 | 87 | 1016.4 |
| 20260506083038 | 53 | 10 | 2.6 | 0.0 | 0.00 | 0.00 | 0.00 | 87 | 1016.4 |
| 20260506081603 | 53 | 311 | 2.6 | 0.0 | 0.00 | 0.00 | 0.00 | 87 | 1016.3 |
| 20260506073046 | 53 | 307 | 1.7 | 0.0 | 0.00 | 0.00 | 0.00 | 87 | 1016.1 |
| 20260506071524 | 53 | 346 | 1.7 | 0.0 | 0.00 | 0.00 | 0.00 | 87 | 1015.9 |
| 20260506061529 | 54 | 15 | 2.6 | 0.0 | 0.00 | 0.00 | 0.00 | 86 | 1015.5 |
| 20260506044614 | 54 | 15 | 3.5 | 0.0 | 0.00 | 0.00 | 0.00 | 85 | 1015.2 |
| 20260506043017 | 54 | 9 | 3.5 | 0.0 | 0.00 | 0.00 | 0.00 | 84 | 1015.0 |
| 20260506041533 | 55 | 355 | 3.5 | 0.0 | 0.00 | 0.00 | 0.00 | 83 | 1014.7 |